CES4133 ZUCK-ZSPD

Flight info

Callsign CES4133
Flight time N/A
Altitude 35100
Route OLNER B213 WHA R343 SASAN
Aircraft B738/M-SDE2E3FGHIRWXY/LB1

Departure

Time 2026-04-22 11:55
Airport Chongqing Jiangbei International Airport (ZUCK)

Arrival

Time N/A
Airport Shanghai Pudong International Airport (ZSPD)
Time Latitude Longitude Altitude Speed Heading
2026-04-22 11:39 29.71696 106.65735 1339 ft 0 kts 285°
2026-04-22 11:49 29.71692 106.65749 1344 ft 2 kts 287°
2026-04-22 11:50 29.71687 106.65767 1343 ft 2 kts 290°
2026-04-22 11:50 29.71681 106.65784 1341 ft 2 kts 297°
2026-04-22 11:50 29.71672 106.65800 1343 ft 2 kts 317°
2026-04-22 11:50 29.71658 106.65808 1341 ft 2 kts
2026-04-22 11:51 29.71651 106.65807 1341 ft 0 kts 12°
2026-04-22 11:52 29.71651 106.65808 1341 ft 0 kts 12°
2026-04-22 11:52 29.71659 106.65811 1340 ft 2 kts 25°
2026-04-22 11:52 29.71671 106.65833 1338 ft 4 kts 93°
2026-04-22 11:53 29.71664 106.65876 1337 ft 7 kts 105°
2026-04-22 11:53 29.71642 106.65955 1336 ft 14 kts 108°
2026-04-22 11:53 29.71565 106.65979 1336 ft 14 kts 197°
2026-04-22 11:53 29.71486 106.65999 1336 ft 14 kts 111°
2026-04-22 11:54 29.71462 106.66102 1337 ft 13 kts 98°
2026-04-22 11:54 29.71511 106.66169 1336 ft 13 kts 16°
2026-04-22 11:54 29.71696 106.66233 1335 ft 58 kts 17°
2026-04-22 11:54 29.72308 106.66444 1328 ft 123 kts 17°
2026-04-22 11:55 29.73300 106.66804 1382 ft 170 kts 17°
2026-04-22 11:55 29.74432 106.67208 2121 ft 166 kts 14°
2026-04-22 11:55 29.75530 106.67570 2941 ft 165 kts 15°
2026-04-22 11:55 29.76646 106.67960 3648 ft 169 kts 23°
2026-04-22 11:56 29.77666 106.68656 4378 ft 172 kts 31°
2026-04-22 11:56 29.78710 106.69416 4918 ft 190 kts 30°
2026-04-22 11:56 29.79908 106.70278 5128 ft 215 kts 30°
2026-04-22 11:56 29.81243 106.71239 5384 ft 236 kts 30°
2026-04-22 11:57 29.82700 106.72287 5671 ft 261 kts 30°
2026-04-22 11:57 29.84261 106.73412 6351 ft 269 kts 30°
2026-04-22 11:57 29.85856 106.74564 7190 ft 270 kts 30°
2026-04-22 11:57 29.87311 106.75960 7942 ft 277 kts 48°
2026-04-22 11:58 29.88449 106.77762 8795 ft 278 kts 52°
2026-04-22 11:58 29.89575 106.79554 9706 ft 277 kts 51°
2026-04-22 11:58 29.90728 106.81367 10308 ft 286 kts 51°
2026-04-22 11:58 29.91961 106.83298 10484 ft 311 kts 51°
2026-04-22 11:59 29.93285 106.85372 10784 ft 329 kts 52°
2026-04-22 11:59 29.94647 106.87510 11404 ft 334 kts 51°
2026-04-22 11:59 29.96034 106.89692 12027 ft 340 kts 52°
2026-04-22 11:59 29.97424 106.91880 12671 ft 345 kts 52°
2026-04-22 12:00 29.98853 106.94129 13348 ft 350 kts 51°
2026-04-22 12:00 30.00300 106.96408 13974 ft 355 kts 51°
2026-04-22 12:00 30.01770 106.98722 14544 ft 360 kts 51°
2026-04-22 12:00 30.03259 107.01068 15117 ft 365 kts 51°
2026-04-22 12:01 30.04766 107.03445 15674 ft 370 kts 51°
2026-04-22 12:01 30.06293 107.05855 16228 ft 374 kts 51°
2026-04-22 12:01 30.07843 107.08298 16755 ft 380 kts 51°
2026-04-22 12:01 30.09409 107.10785 17305 ft 385 kts 53°
2026-04-22 12:02 30.10577 107.13597 17785 ft 396 kts 76°
2026-04-22 12:02 30.10693 107.16780 18352 ft 402 kts 98°
2026-04-22 12:02 30.09963 107.19908 18816 ft 406 kts 108°
2026-04-22 12:02 30.09085 107.23023 19284 ft 411 kts 108°
2026-04-22 12:03 30.08212 107.26181 19745 ft 415 kts 108°
2026-04-22 12:03 30.07339 107.29369 20244 ft 418 kts 108°
2026-04-22 12:03 30.06467 107.32584 20741 ft 422 kts 108°
2026-04-22 12:03 30.05592 107.35830 21207 ft 425 kts 108°
2026-04-22 12:04 30.04712 107.39106 21673 ft 429 kts 108°
2026-04-22 12:04 30.03826 107.42406 22146 ft 432 kts 108°
2026-04-22 12:04 30.02933 107.45732 22619 ft 435 kts 108°
2026-04-22 12:04 30.02034 107.49077 23070 ft 439 kts 108°
2026-04-22 12:05 30.01125 107.52453 23510 ft 442 kts 108°
2026-04-22 12:05 30.00221 107.55807 23866 ft 446 kts 108°
2026-04-22 12:05 29.99296 107.59236 24217 ft 449 kts 109°
2026-04-22 12:05 29.98362 107.62689 24572 ft 452 kts 109°
2026-04-22 12:06 29.97423 107.66162 24949 ft 456 kts 109°
2026-04-22 12:06 29.96475 107.69662 25281 ft 459 kts 109°
2026-04-22 12:06 29.95521 107.73182 25605 ft 462 kts 109°
2026-04-22 12:06 29.94559 107.76729 25936 ft 465 kts 109°
2026-04-22 12:07 29.93656 107.80322 26244 ft 470 kts 102°
2026-04-22 12:07 29.93560 107.84098 26494 ft 475 kts 79°
2026-04-22 12:07 29.94393 107.87768 26896 ft 474 kts 71°
2026-04-22 12:07 29.95384 107.91402 27193 ft 477 kts 71°
2026-04-22 12:08 29.96360 107.95079 27446 ft 482 kts 71°
2026-04-22 12:08 29.97329 107.98790 27756 ft 485 kts 72°
2026-04-22 12:08 29.98290 108.02530 28077 ft 487 kts 72°
2026-04-22 12:08 29.99245 108.06293 28348 ft 490 kts 72°
2026-04-22 12:09 30.00198 108.10077 28627 ft 493 kts 72°
2026-04-22 12:09 30.01155 108.13887 28888 ft 496 kts 72°
2026-04-22 12:09 30.02118 108.17719 29153 ft 499 kts 72°
2026-04-22 12:09 30.03087 108.21578 29423 ft 502 kts 72°
2026-04-22 12:10 30.04061 108.25458 29712 ft 504 kts 72°
2026-04-22 12:10 30.05040 108.29358 30001 ft 507 kts 72°
2026-04-22 12:10 30.06020 108.33274 30223 ft 509 kts 72°
2026-04-22 12:10 30.07002 108.37210 30468 ft 511 kts 73°
2026-04-22 12:11 30.07986 108.41171 30656 ft 515 kts 72°
2026-04-22 12:11 30.08971 108.45152 30891 ft 516 kts 72°
2026-04-22 12:11 30.09953 108.49125 31264 ft 514 kts 72°
2026-04-22 12:11 30.10935 108.53096 31508 ft 515 kts 72°
2026-04-22 12:12 30.11920 108.57081 31739 ft 517 kts 72°
2026-04-22 12:12 30.12985 108.61045 31991 ft 517 kts 69°
2026-04-22 12:12 30.14130 108.64920 32274 ft 516 kts 69°
2026-04-22 12:12 30.15333 108.68880 32581 ft 516 kts 68°
2026-04-22 12:13 30.16518 108.72805 32806 ft 519 kts 69°
2026-04-22 12:13 30.17689 108.76755 32956 ft 522 kts 69°
2026-04-22 12:13 30.18848 108.80732 33249 ft 521 kts 69°
2026-04-22 12:13 30.19991 108.84693 33660 ft 518 kts 69°
2026-04-22 12:14 30.21117 108.88593 33839 ft 520 kts 69°
2026-04-22 12:14 30.22284 108.92619 33960 ft 523 kts 69°
2026-04-22 12:14 30.23354 108.96580 34177 ft 524 kts 71°
2026-04-22 12:14 30.24352 109.00626 34442 ft 522 kts 72°
2026-04-22 12:15 30.25318 109.04678 34647 ft 523 kts 72°
2026-04-22 12:15 30.26289 109.08743 34832 ft 524 kts 72°
2026-04-22 12:15 30.27273 109.12803 35017 ft 525 kts 71°
2026-04-22 12:15 30.28270 109.16869 35118 ft 527 kts 71°
2026-04-22 12:16 30.30287 109.25047 35120 ft 528 kts 71°
2026-04-22 12:16 30.32250 109.33175 35070 ft 521 kts 71°
2026-04-22 12:17 30.34187 109.41228 35102 ft 520 kts 71°
2026-04-22 12:17 30.36130 109.49337 35103 ft 526 kts 71°
2026-04-22 12:18 30.38088 109.57500 35107 ft 526 kts 71°
2026-04-22 12:18 30.39776 109.65761 35119 ft 528 kts 78°
2026-04-22 12:19 30.40944 109.74155 35116 ft 527 kts 79°
2026-04-22 12:19 30.42096 109.82536 35099 ft 527 kts 79°
2026-04-22 12:20 30.43295 109.90890 35113 ft 525 kts 78°
2026-04-22 12:20 30.44513 109.99228 35106 ft 524 kts 79°
2026-04-22 12:21 30.45716 110.07500 35114 ft 524 kts 78°
2026-04-22 12:21 30.46919 110.15828 35132 ft 525 kts 78°
2026-04-22 12:22 30.48119 110.24177 35115 ft 524 kts 78°
2026-04-22 12:22 30.49308 110.32515 35106 ft 524 kts 79°
2026-04-22 12:23 30.50492 110.40842 35135 ft 524 kts 79°
2026-04-22 12:23 30.51680 110.49197 35112 ft 526 kts 79°
2026-04-22 12:24 30.52858 110.57561 35136 ft 525 kts 79°
2026-04-22 12:24 30.54030 110.65918 35147 ft 524 kts 79°
2026-04-22 12:25 30.55195 110.74265 35138 ft 524 kts 79°
2026-04-22 12:25 30.56354 110.82609 35129 ft 523 kts 79°
2026-04-22 12:26 30.57508 110.90946 35127 ft 523 kts 79°
2026-04-22 12:26 30.58655 110.99283 35128 ft 524 kts 79°
2026-04-22 12:27 30.59794 111.07582 35141 ft 525 kts 79°
2026-04-22 12:27 30.60932 111.15947 35114 ft 524 kts 79°
2026-04-22 12:28 30.62065 111.24296 35148 ft 523 kts 79°
2026-04-22 12:28 30.63190 111.32664 35128 ft 525 kts 79°
2026-04-22 12:29 30.64303 111.41036 35127 ft 525 kts 79°
2026-04-22 12:29 30.65379 111.49413 35125 ft 525 kts 82°
2026-04-22 12:30 30.66008 111.62110 35127 ft 525 kts 86°
2026-04-22 12:31 30.66446 111.70564 35127 ft 524 kts 85°
2026-04-22 12:31 30.66872 111.79013 35127 ft 524 kts 86°
2026-04-22 12:32 30.67276 111.87454 35125 ft 523 kts 86°
2026-04-22 12:32 30.67910 112.00099 35129 ft 522 kts 85°
2026-04-22 12:33 30.68387 112.07095 35140 ft 523 kts 84°
2026-04-22 12:33 30.68996 112.15517 35117 ft 523 kts 84°
2026-04-22 12:34 30.69581 112.23937 35125 ft 523 kts 84°
2026-04-22 12:34 30.70143 112.32360 35119 ft 523 kts 84°
2026-04-22 12:35 30.70696 112.40785 35118 ft 523 kts 84°
2026-04-22 12:35 30.71244 112.49199 35100 ft 522 kts 85°
2026-04-22 12:36 30.71787 112.57611 35108 ft 522 kts 85°
2026-04-22 12:36 30.72325 112.66015 35116 ft 521 kts 85°
2026-04-22 12:37 30.72856 112.74414 35116 ft 521 kts 85°
2026-04-22 12:37 30.73383 112.82810 35109 ft 520 kts 85°
2026-04-22 12:38 30.73902 112.91198 35109 ft 520 kts 85°
2026-04-22 12:38 30.74417 112.99588 35117 ft 520 kts 85°
2026-04-22 12:39 30.75177 113.12125 35107 ft 521 kts 85°
2026-04-22 12:40 30.75573 113.20539 35113 ft 521 kts 88°
2026-04-22 12:40 30.75752 113.28963 35111 ft 521 kts 89°
2026-04-22 12:41 30.75921 113.37384 35109 ft 521 kts 88°
2026-04-22 12:41 30.76122 113.45802 35103 ft 521 kts 88°
2026-04-22 12:42 30.76333 113.54208 35104 ft 520 kts 88°
2026-04-22 12:42 30.76538 113.62618 35106 ft 520 kts 88°
2026-04-22 12:43 30.76735 113.71024 35108 ft 520 kts 88°
2026-04-22 12:43 30.76926 113.79425 35096 ft 519 kts 88°
2026-04-22 12:44 30.77112 113.87821 35097 ft 519 kts 88°
2026-04-22 12:44 30.77292 113.96218 35101 ft 519 kts 89°
2026-04-22 12:45 30.77493 114.04616 35096 ft 520 kts 87°
2026-04-22 12:45 30.77887 114.13005 35089 ft 520 kts 86°
2026-04-22 12:46 30.78625 114.21349 35087 ft 518 kts 75°
2026-04-22 12:46 30.79689 114.25328 35103 ft 515 kts 64°
2026-04-22 12:46 30.81088 114.29150 35112 ft 514 kts 63°
2026-04-22 12:47 30.83698 114.36909 35097 ft 516 kts 67°
2026-04-22 12:47 30.86164 114.44747 35092 ft 515 kts 66°
2026-04-22 12:48 30.88679 114.52553 35095 ft 515 kts 66°
2026-04-22 12:48 30.91193 114.60295 35098 ft 515 kts 66°
2026-04-22 12:49 30.93718 114.68102 35090 ft 515 kts 66°
2026-04-22 12:49 30.96234 114.75917 35096 ft 516 kts 66°
2026-04-22 12:50 30.98744 114.83739 35099 ft 516 kts 66°
2026-04-22 12:50 31.01253 114.91571 35090 ft 516 kts 66°
2026-04-22 12:51 31.03767 114.99401 35090 ft 515 kts 66°
2026-04-22 12:51 31.06289 115.07217 35082 ft 515 kts 66°
2026-04-22 12:52 31.08802 115.15036 35080 ft 515 kts 66°
2026-04-22 12:52 31.11308 115.22856 35120 ft 515 kts 66°
2026-04-22 12:53 31.13760 115.30733 35090 ft 516 kts 67°
2026-04-22 12:53 31.16276 115.38565 35083 ft 515 kts 66°
2026-04-22 12:54 31.18826 115.46368 35086 ft 514 kts 66°
2026-04-22 12:54 31.21354 115.54185 35093 ft 514 kts 66°
2026-04-22 12:55 31.23864 115.62011 35097 ft 515 kts 66°
2026-04-22 12:55 31.26374 115.69859 35096 ft 516 kts 66°
2026-04-22 12:56 31.28885 115.77718 35085 ft 516 kts 66°
2026-04-22 12:56 31.31395 115.85576 35097 ft 516 kts 66°
2026-04-22 12:57 31.33921 115.93424 35102 ft 515 kts 66°
2026-04-22 12:57 31.36463 116.01199 35092 ft 515 kts 66°
2026-04-22 12:58 31.39041 116.09091 35099 ft 516 kts 66°
2026-04-22 12:58 31.41589 116.16939 35109 ft 516 kts 66°
2026-04-22 12:59 31.44131 116.24798 35104 ft 516 kts 66°
2026-04-22 12:59 31.46670 116.32666 35087 ft 516 kts 66°
2026-04-22 13:00 31.49188 116.40485 35093 ft 516 kts 66°
2026-04-22 13:00 31.51717 116.48358 35098 ft 516 kts 66°
2026-04-22 13:01 31.54241 116.56238 35090 ft 516 kts 66°
2026-04-22 13:01 31.56763 116.64127 35089 ft 517 kts 66°
2026-04-22 13:02 31.59282 116.72028 35088 ft 518 kts 66°
2026-04-22 13:02 31.61800 116.79946 35083 ft 518 kts 66°
2026-04-22 13:03 31.64315 116.87875 35050 ft 519 kts 66°
2026-04-22 13:03 31.66824 116.95804 35072 ft 518 kts 66°
2026-04-22 13:04 31.69323 117.03736 35075 ft 518 kts 67°
2026-04-22 13:04 31.71789 117.11696 35082 ft 519 kts 67°
2026-04-22 13:05 31.74250 117.19664 35052 ft 519 kts 67°
2026-04-22 13:05 31.76588 117.27696 35047 ft 521 kts 75°
2026-04-22 13:06 31.77265 117.36103 35050 ft 522 kts 95°
2026-04-22 13:06 31.76589 117.44591 35059 ft 522 kts 97°
2026-04-22 13:07 31.75922 117.53086 35058 ft 522 kts 96°
2026-04-22 13:07 31.75314 117.61587 35048 ft 522 kts 96°
2026-04-22 13:08 31.74720 117.70089 35052 ft 522 kts 96°
2026-04-22 13:08 31.74119 117.78584 35050 ft 522 kts 96°
2026-04-22 13:09 31.73509 117.87068 35055 ft 521 kts 96°
2026-04-22 13:09 31.72892 117.95546 35051 ft 521 kts 96°
2026-04-22 13:10 31.72271 118.04023 35053 ft 521 kts 97°
2026-04-22 13:10 31.71647 118.12498 35044 ft 521 kts 97°
2026-04-22 13:11 31.71055 118.20966 35042 ft 520 kts 97°
2026-04-22 13:11 31.70763 118.25210 34884 ft 524 kts 97°
2026-04-22 13:11 31.70466 118.29489 34525 ft 525 kts 97°
2026-04-22 13:11 31.70174 118.33681 34252 ft 520 kts 97°
2026-04-22 13:12 31.69880 118.37882 33969 ft 513 kts 97°
2026-04-22 13:12 31.69586 118.42026 33657 ft 506 kts 97°
2026-04-22 13:12 31.69294 118.46118 33343 ft 500 kts 97°
2026-04-22 13:12 31.69004 118.50160 33027 ft 494 kts 97°
2026-04-22 13:13 31.68714 118.54166 32728 ft 490 kts 97°
2026-04-22 13:13 31.68427 118.58122 32419 ft 486 kts 97°
2026-04-22 13:13 31.68140 118.62056 32126 ft 482 kts 97°
2026-04-22 13:13 31.67852 118.65994 31858 ft 489 kts 97°
2026-04-22 13:14 31.67552 118.70039 31541 ft 505 kts 97°
2026-04-22 13:14 31.67244 118.74192 31235 ft 517 kts 97°
2026-04-22 13:14 31.66935 118.78379 30892 ft 511 kts 97°
2026-04-22 13:14 31.66631 118.82501 30603 ft 503 kts 97°
2026-04-22 13:15 31.66330 118.86560 30311 ft 495 kts 97°
2026-04-22 13:15 31.66031 118.90555 30022 ft 488 kts 97°
2026-04-22 13:15 31.65735 118.94498 29690 ft 481 kts 97°
2026-04-22 13:15 31.65441 118.98380 29342 ft 474 kts 97°
2026-04-22 13:16 31.65146 119.02206 29044 ft 467 kts 97°
2026-04-22 13:16 31.64858 119.05973 28745 ft 461 kts 96°
2026-04-22 13:16 31.64677 119.09702 28428 ft 454 kts 94°
2026-04-22 13:16 31.64530 119.13383 28138 ft 448 kts 94°
2026-04-22 13:17 31.64379 119.17018 27857 ft 445 kts 95°
2026-04-22 13:17 31.64219 119.20647 27604 ft 446 kts 95°
2026-04-22 13:17 31.64052 119.24294 27368 ft 449 kts 95°
2026-04-22 13:17 31.63882 119.27953 27099 ft 449 kts 95°
2026-04-22 13:18 31.63713 119.31601 26855 ft 447 kts 95°
2026-04-22 13:18 31.63544 119.35242 26638 ft 446 kts 95°
2026-04-22 13:18 31.63374 119.38869 26395 ft 444 kts 95°
2026-04-22 13:18 31.63203 119.42478 26153 ft 442 kts 95°
2026-04-22 13:19 31.63032 119.46067 25914 ft 440 kts 95°
2026-04-22 13:19 31.62861 119.49639 25673 ft 437 kts 95°
2026-04-22 13:19 31.62689 119.53189 25436 ft 435 kts 95°
2026-04-22 13:19 31.62518 119.56723 25179 ft 433 kts 95°
2026-04-22 13:20 31.62347 119.60240 24954 ft 431 kts 95°
2026-04-22 13:20 31.62176 119.63745 24727 ft 429 kts 95°
2026-04-22 13:20 31.62004 119.67228 24502 ft 428 kts 95°
2026-04-22 13:20 31.61838 119.70708 24278 ft 426 kts 95°
2026-04-22 13:21 31.61678 119.74174 24056 ft 425 kts 95°
2026-04-22 13:21 31.61521 119.77626 23831 ft 423 kts 95°
2026-04-22 13:21 31.61363 119.81069 23618 ft 422 kts 95°
2026-04-22 13:21 31.61205 119.84494 23376 ft 420 kts 95°
2026-04-22 13:22 31.61099 119.86761 23196 ft 419 kts 95°
2026-04-22 13:22 31.60885 119.91317 22849 ft 417 kts 95°
2026-04-22 13:22 31.60779 119.93566 22677 ft 416 kts 95°
2026-04-22 13:22 31.60563 119.98088 22328 ft 414 kts 95°
2026-04-22 13:23 31.60456 120.00315 22162 ft 413 kts 95°
2026-04-22 13:23 31.60242 120.04753 21826 ft 410 kts 95°
2026-04-22 13:23 31.60133 120.07003 21658 ft 409 kts 95°
2026-04-22 13:23 31.59919 120.11393 21316 ft 406 kts 95°
2026-04-22 13:24 31.59810 120.13624 21149 ft 404 kts 95°
2026-04-22 13:24 31.59596 120.17967 20822 ft 402 kts 95°
2026-04-22 13:24 31.59487 120.20175 20676 ft 399 kts 95°
2026-04-22 13:24 31.59326 120.23412 20627 ft 398 kts 95°
2026-04-22 13:25 31.59164 120.26656 20613 ft 398 kts 95°
2026-04-22 13:25 31.59003 120.29855 20611 ft 398 kts 95°
2026-04-22 13:25 31.58710 120.33071 20550 ft 397 kts 107°
2026-04-22 13:25 31.57862 120.36186 20283 ft 394 kts 114°
2026-04-22 13:26 31.56907 120.39190 20015 ft 392 kts 114°